This is the latest recevied weather packets stored in our database for station/object SV9TNF-52. If no packets are shown the sender has not sent any weather packets the latest 10 day(s).
| Time | Temp. | Humidity | Pressure | Rain* | Wind** | Luminosity | Snow |
|---|---|---|---|---|---|---|---|
| 1788283702 | 26.11° C | 64% | 1019.6 hPa | 0 mm | 3.58 m/s, 256° | - | - |
| 1788283402 | 26.11° C | 64% | 1019.6 hPa | 0 mm | 2.24 m/s, 269° | - | - |
| 1788283102 | 26.11° C | 64% | 1019.6 hPa | 0 mm | 0 m/s | - | - |
| 1788282803 | 26.67° C | 64% | 1019.6 hPa | 0 mm | 1.34 m/s, 250° | - | - |
| 1788282502 | 26.67° C | 63% | 1019.6 hPa | 0 mm | 0 m/s | - | - |
| 1788282202 | 26.67° C | 63% | 1019.6 hPa | 0 mm | 1.79 m/s, 263° | - | - |
| 1788281902 | 26.67° C | 62% | 1019.3 hPa | 0 mm | 0.89 m/s, 253° | - | - |
| 1788281602 | 27.22° C | 61% | 1019.3 hPa | 0 mm | 1.34 m/s, 260° | - | - |
| 1788281301 | 27.78° C | 60% | 1019.3 hPa | 0 mm | 0 m/s | - | - |
| 1788281001 | 27.78° C | 59% | 1019.3 hPa | 0 mm | 0 m/s | - | - |
| 1788280701 | 27.78° C | 59% | 1019.3 hPa | 0 mm | 0.89 m/s, 297° | - | - |
| 1788280401 | 28.33° C | 58% | 1019.3 hPa | 0 mm | 2.68 m/s, 253° | - | - |
| 1788280101 | 28.33° C | 58% | 1019.3 hPa | 0 mm | 0.45 m/s, 270° | - | - |
| 1788279801 | 28.33° C | 58% | 1019.3 hPa | 0 mm | 1.34 m/s, 0° | - | - |
| 1788279501 | 28.89° C | 57% | 1019.3 hPa | 0 mm | 3.13 m/s, 260° | - | - |
| 1788279201 | 29.44° C | 57% | 1019.3 hPa | 0 mm | 2.24 m/s, 332° | - | - |
| 1788278901 | 29.44° C | 56% | 1019.3 hPa | 0 mm | 0 m/s | - | - |
| 1788278600 | 29.44° C | 56% | 1019.3 hPa | 0 mm | 2.68 m/s, 266° | - | - |
| 1788278301 | 29.44° C | 55% | 1019.3 hPa | 0 mm | 1.79 m/s, 242° | - | - |
| 1788278000 | 29.44° C | 55% | 1019.3 hPa | 0 mm | 1.79 m/s, 258° | - | - |
| 1788277701 | 29.44° C | 57% | 1019.3 hPa | 0 mm | 1.34 m/s, 319° | - | - |
| 1788277401 | 28.89° C | 55% | 1019.3 hPa | 0 mm | 5.81 m/s, 17° | - | - |
| 1788277100 | 28.89° C | 55% | 1019.3 hPa | 0 mm | 6.26 m/s, 80° | - | - |
| 1788276800 | 29.44° C | 55% | 1019.3 hPa | 0 mm | 4.02 m/s, 44° | - | - |
| 1788276500 | 29.44° C | 56% | 1019.3 hPa | 0 mm | 2.68 m/s, 343° | - | - |
* Rain latest hour (hover to see other rain measurements)
** Current wind speed in m/s (hover to see current wind gust speed)